| Date | Time | Temp. (oF) | Dew Point (oF) | Rel. Hum. (%) | Press. (in.) | Wind Dir. | Wind Speed (mph) | Hourly Rainfall (in.) |
|
|---|---|---|---|---|---|---|---|---|---|
| 1 | 12/15 | 00:00 | 21 | 8 | 57 | 30.09 | NNW | 2 | 0.00 |
| 2 | 12/14 | 23:00 | 22 | 8 | 56 | 30.10 | NW | 2 | 0.00 |
| 3 | 12/14 | 22:00 | 24 | 8 | 52 | 30.08 | NNW | 7 | 0.00 |
| 4 | 12/14 | 21:00 | 25 | 9 | 52 | 30.07 | NW | 10 | 0.00 |
| 5 | 12/14 | 20:00 | 26 | 10 | 51 | 30.05 | WNW | 3 | 0.00 |
| 6 | 12/14 | 19:00 | 26 | 9 | 50 | 30.02 | W | 1 | 0.00 |
| 7 | 12/14 | 18:00 | 26 | 10 | 51 | 29.99 | WNW | 6 | 0.00 |
| 8 | 12/14 | 17:00 | 28 | 9 | 46 | 29.95 | NW | 7 | 0.00 |
| 9 | 12/14 | 16:00 | 30 | 13 | 49 | 29.89 | NW | 9 | 0.00 |
| 10 | 12/14 | 15:00 | 31 | 13 | 47 | 29.88 | NNW | 10 | 0.00 |
| 11 | 12/14 | 14:00 | 31 | 14 | 49 | 29.86 | NW | 10 | 0.00 |
| 12 | 12/14 | 13:00 | 30 | 15 | 54 | 29.85 | NW | 9 | 0.00 |
| 13 | 12/14 | 12:00 | 29 | 19 | 66 | 29.82 | NNW | 10 | 0.00 |
| 14 | 12/14 | 11:00 | 28 | 20 | 72 | 29.79 | NW | 16 | 0.00 |
| 15 | 12/14 | 10:00 | 27 | 21 | 79 | 29.76 | NW | 13 | 0.00 |
| 16 | 12/14 | 09:00 | 26 | 23 | 89 | 29.69 | WNW | 8 | 0.00 |
| 17 | 12/14 | 08:00 | 25 | 23 | 94 | 29.61 | W | 3 | 0.00 |
| 18 | 12/14 | 07:00 | 25 | 24 | 96 | 29.55 | WSW | 3 | 0.00 |
| 19 | 12/14 | 06:00 | 27 | 26 | 97 | 29.50 | SSE | 1 | 0.00 |
| 20 | 12/14 | 05:00 | 26 | 25 | 98 | 29.48 | NNE | 1 | 0.00 |
| 21 | 12/14 | 04:00 | 26 | 25 | 98 | 29.46 | ENE | 2 | 0.00 |
| 22 | 12/14 | 03:00 | 25 | 24 | 100 | 29.48 | ENE | 2 | 0.00 |
| 23 | 12/14 | 02:00 | 24 | 23 | 99 | 29.50 | ENE | 3 | 0.00 |
| 24 | 12/14 | 01:00 | 23 | 22 | 98 | 29.53 | ENE | 2 | 0.00 |